Погода в Хьюстоне

США     29˚45′49″N   95˚21′47″W
темп.,
°C
ветер,
м/с
пор.,
м/с
влажн.,
%
обл.,
%
осадки,
мм/ч
давл.,
гПа
погр.,
м
5 декабря, сб
сб500:00+11˚св35590 0.0 1024303
03:00+9˚св35650 0.0 1024265
06:00+9˚св23680 0.0 1024225
09:00+10˚св34630 0.0 1025298
12:00+12˚в235448 0.1 1024462
15:00+11˚св1261100 0.3 1022399
18:00+11˚ссв2365100 1.0 1022322
21:00+11˚ссв235890 0.1 1022249
6 декабря, вс
вс600:00+11˚зюз347082 2.2 1022442
03:00+11˚всв1272100 1.5 1020395
06:00+11˚зсз227388 1.6 1020530
09:00+11˚зсз247020 0.0 1021512
12:00+14˚зсз455010 0.0 10191021
15:00+16˚сз58455 0.0 10171506
18:00+14˚сз495222 0.0 10181284
21:00+13˚сз37560 0.0 1019743
7 декабря, пн
пн700:00+12˚сз26590 0.0 1020347
03:00+12˚сз37640 0.0 1019412
06:00+11˚ссз27580 0.0 1020399
09:00+12˚ссз36500 0.0 1022498
12:00+16˚ссз36350 0.0 1022910
15:00+18˚ссз35330 0.0 10201084
18:00+16˚с35400 0.0 1021821
21:00+14˚с25460 0.0 1023359
8 декабря, вт
вт800:00+13˚ссв12540 0.0 1024155
03:00+12˚св13580 0.0 1024145
06:00+11˚всв22610 0.0 1024116
09:00+12˚св125385 0.0 1025217
12:00+17˚юз223652 0.0 1025677
15:00+19˚зюз233064 0.0 1023985
18:00+17˚зюз233853 0.0 1022125
21:00+16˚ююз224729 0.0 102366
9 декабря, ср
ср900:00+14˚юз255440 0.0 1024174
03:00+13˚зюз245810 0.0 1023159
06:00+13˚з12615 0.0 102347
09:00+15˚зюз13540 0.0 1024215
12:00+20˚зюз23360 0.0 1024581
15:00+21˚юз23340 0.0 10221022
18:00+19˚ююз35500 0.0 1021316
21:00+17˚ю35590 0.0 1022213